Terug naar catalogus

COSMOS 2251 DEB

ActiefLEO
NORAD 35287·DEBRIS·🇷🇺 Russia

Gelanceerd Jun 16, 1993 vanaf Plesetsk Cosmodrome

Loading…

Volgende Passages (komende 24 uur)

TLE

VersSource: Space-Track

Epoch: Sep 14, 2026, 21:58 UTC

1 35287U 93036AJR 26257.91553954  .00000190  00000-0  73394-4 0  9999
2 35287  74.0295 128.5656 0017846 165.6813 214.5668 14.36557956908586

Volg COSMOS 2251 DEB in realtime met AllMySat

Download on the App Store